Find Starlink 34389

NORAD ID: 64351 Int'l Des: 2025-126 Owner: SPXS Country: US Constellation: starlink operational
LEOCIRCULAR

当前视图

正在加载3D地球...

About Starlink 34389

Starlink 34389 (NORAD 64351) is a starlink constellation satellite (v2 mini) launched Jun 13, 2025 by SPXS of US. It operates in LEO, CIRCULAR orbit with a mass of 575.00 kg.

即将过境

Passes for default location (London). Set your location on the main map for personalized predictions.

高度历史

Loading altitude history...

两行轨道根数

1 64351U 25126H 26264.24438786 .00008311 00000-0 29321-3 0 9990
2 64351 69.9998 259.0136 0003862 275.9210 84.1525 15.29582863 70036
Epoch: Sep 21, 2026 • Age: 20 hours

当前状态

高度 480.7 km
远地点 / 近地点 N/A
速度 7.63 km/s
星下点 -10.39°S, 141.31°W
发射日期 Jun 13, 2025
运行时间 1.2 years
类型 internet

技术详情

分类 Payload
质量 575.00 kg
干质量 530.00 kg
长度 0.30 m
跨度 29.00 m
形状 ? Box + pan
制造商 SPXS
平台类型 Starlink V2MO
阶段状态 In Orbit
所有者/国家 SPXS/US

Most Searched